AL7BX-WX Weather Reports


Display with metric or nautical units.
time (UTC)temp
F
wind
direction
speed
MPH
gust
MPH
rain 1hr
in
rain 24hr
in
rain mn
in
humidity
%
barometer
mb
20260905172913 76 187 10.0 24.0 0.00 0.00 0.00 29
20260905171803 76 187 12.0 21.0 0.00 0.00 0.00 30
20260905170903 76 186 11.0 23.0 0.00 0.00 0.00 32
20260905170003 75 185 10.0 22.0 0.00 0.00 0.00 32
20260905165403 75 189 9.0 20.0 0.00 0.00 0.00 32
20260905164503 75 178 10.0 20.0 0.00 0.00 0.00 31
20260905163814 75 179 9.0 17.0 0.00 0.00 0.00 32
20260905162913 74 177 6.0 15.0 0.00 0.00 0.00 32
20260905161803 74 176 8.0 17.0 0.00 0.00 0.00 31
20260905160903 72 187 7.0 13.0 0.00 0.00 0.00 31
20260905160003 71 183 7.0 14.0 0.00 0.00 0.00 31
20260905155403 70 170 6.0 14.0 0.00 0.00 0.00 34
20260905154503 68 184 5.0 13.0 0.00 0.00 0.00 32
20260905153603 68 185 5.0 11.0 0.00 0.00 0.00 30
20260905152703 68 193 5.0 11.0 0.00 0.00 0.00 31
20260905151803 68 189 4.0 10.0 0.00 0.00 0.00 31
20260905150903 66 183 1.0 5.0 0.00 0.00 0.00 35
20260905150003 63 198 0.0 1.0 0.00 0.00 0.00 42
20260905145403 61 198 0.0 2.0 0.00 0.00 0.00 43
20260905144503 59 198 0.0 1.0 0.00 0.00 0.00 47
20260905143603 58 198 0.0 1.0 0.00 0.00 0.00 44
20260905142703 59 198 0.0 2.0 0.00 0.00 0.00 43
20260905141803 58 193 2.0 5.0 0.00 0.00 0.00 39
20260905140903 57 188 1.0 4.0 0.00 0.00 0.00 39
20260905140004 56 188 0.0 2.0 0.00 0.00 0.00 40
20260905135403 56 188 0.0 3.0 0.00 0.00 0.00 41
20260905134504 56 188 1.0 3.0 0.00 0.00 0.00 41
20260905133603 57 188 1.0 3.0 0.00 0.00 0.00 39
20260905132703 57 188 2.0 4.0 0.00 0.00 0.00 38
20260905131803 57 189 1.0 3.0 0.00 0.00 0.00 39
20260905131112 57 190 1.0 4.0 0.00 0.00 0.00 38
20260905130003 58 182 2.0 4.0 0.00 0.00 0.00 37
20260905125613 58 182 2.0 5.0 0.00 0.00 0.00 37
20260905124503 58 183 2.0 4.0 0.00 0.00 0.00 37
20260905123603 58 183 2.0 4.0 0.00 0.00 0.00 38
20260905122913 58 183 1.0 4.0 0.00 0.00 0.00 38
20260905121803 59 182 2.0 5.0 0.00 0.00 0.00 39
20260905120903 59 184 3.0 6.0 0.00 0.00 0.00 38
20260905120004 60 184 2.0 5.0 0.00 0.00 0.00 38
20260905115403 60 181 2.0 4.0 0.00 0.00 0.00 38
20260905114503 61 180 1.0 3.0 0.00 0.00 0.00 38
20260905113603 61 201 2.0 4.0 0.00 0.00 0.00 37
20260905112703 61 222 2.0 5.0 0.00 0.00 0.00 38
20260905111803 62 213 2.0 6.0 0.00 0.00 0.00 37
20260905110903 62 229 2.0 6.0 0.00 0.00 0.00 37
20260905110003 62 236 2.0 5.0 0.00 0.00 0.00 36
20260905105403 62 232 2.0 5.0 0.00 0.00 0.00 36
20260905104503 62 217 1.0 4.0 0.00 0.00 0.00 36
20260905103603 62 228 1.0 5.0 0.00 0.00 0.00 36
20260905102912 62 241 2.0 5.0 0.00 0.00 0.00 36
20260905101803 62 253 3.0 6.0 0.00 0.00 0.00 36
20260905100903 63 248 3.0 10.0 0.00 0.00 0.00 35
20260905100003 63 240 3.0 10.0 0.00 0.00 0.00 34
20260905095403 64 223 2.0 9.0 0.00 0.00 0.00 34
20260905094503 64 233 2.0 12.0 0.00 0.00 0.00 34
20260905093603 65 214 3.0 10.0 0.00 0.00 0.00 33
20260905092703 65 205 4.0 10.0 0.00 0.00 0.00 33
20260905091803 65 202 4.0 10.0 0.00 0.00 0.00 33
20260905090903 66 196 4.0 7.0 0.00 0.00 0.00 32
20260905090214 66 189 4.0 9.0 0.00 0.00 0.00 31
20260905085403 66 194 4.0 10.0 0.00 0.00 0.00 31
20260905084713 66 196 5.0 11.0 0.00 0.00 0.00 31
20260905083603 66 191 4.0 11.0 0.00 0.00 0.00 31
20260905082703 66 199 4.0 11.0 0.00 0.00 0.00 31
20260905081803 66 202 4.0 9.0 0.00 0.00 0.00 30
20260905080903 66 203 4.0 9.0 0.00 0.00 0.00 30
20260905080003 66 199 4.0 8.0 0.00 0.00 0.00 30
20260905075403 67 196 4.0 7.0 0.00 0.00 0.00 29
20260905074503 68 188 6.0 11.0 0.00 0.00 0.00 28
20260905073603 68 185 6.0 16.0 0.00 0.00 0.00 27
20260905072703 69 182 6.0 14.0 0.00 0.00 0.00 26
20260905071803 69 170 6.0 14.0 0.00 0.00 0.00 26
20260905070903 69 170 7.0 14.0 0.00 0.00 0.00 26
20260905070003 69 171 6.0 13.0 0.00 0.00 0.00 26
20260905065403 69 171 6.0 12.0 0.00 0.00 0.00 26
20260905064712 70 168 7.0 16.0 0.00 0.00 0.00 26
20260905063603 70 165 6.0 15.0 0.00 0.00 0.00 26
20260905062703 70 174 6.0 14.0 0.00 0.00 0.00 26
20260905061803 70 170 7.0 16.0 0.00 0.00 0.00 26
20260905060903 71 174 7.0 16.0 0.00 0.00 0.00 26
20260905060008 71 171 7.0 14.0 0.00 0.00 0.00 26
20260905055403 71 171 6.0 15.0 0.00 0.00 0.00 26
20260905054503 71 171 7.0 19.0 0.00 0.00 0.00 26
20260905053813 71 175 7.0 18.0 0.00 0.00 0.00 27
20260905052703 70 166 6.0 12.0 0.00 0.00 0.00 27
20260905051803 70 172 6.0 13.0 0.00 0.00 0.00 28
20260905050903 70 168 6.0 12.0 0.00 0.00 0.00 28
20260905050004 71 162 6.0 12.0 0.00 0.00 0.00 28
20260905045403 71 160 5.0 11.0 0.00 0.00 0.00 28
20260905044503 71 158 6.0 12.0 0.00 0.00 0.00 28
20260905043603 71 158 5.0 13.0 0.00 0.00 0.00 28
20260905042703 72 148 5.0 13.0 0.00 0.00 0.00 28
20260905041803 72 143 5.0 12.0 0.00 0.00 0.00 29
20260905041113 71 148 4.0 10.0 0.00 0.00 0.00 30
20260905040212 70 148 3.0 7.0 0.00 0.00 0.00 31
20260905035403 70 175 2.0 6.0 0.00 0.00 0.00 31
20260905034503 71 142 3.0 6.0 0.00 0.00 0.00 32
20260905033603 71 146 2.0 5.0 0.00 0.00 0.00 32
20260905032703 72 151 3.0 10.0 0.00 0.00 0.00 31
20260905031803 72 170 5.0 12.0 0.00 0.00 0.00 31
20260905030903 72 175 4.0 11.0 0.00 0.00 0.00 31
20260905030214 72 181 5.0 13.0 0.00 0.00 0.00 31
20260905025614 72 188 6.0 13.0 0.00 0.00 0.00 31
20260905024503 72 202 4.0 13.0 0.00 0.00 0.00 31
20260905023814 72 205 5.0 10.0 0.00 0.00 0.00 31
20260905022703 73 189 6.0 13.0 0.00 0.00 0.00 30
20260905022013 73 192 6.0 13.0 0.00 0.00 0.00 30
20260905020903 74 191 7.0 17.0 0.00 0.00 0.00 30
20260905020003 74 194 7.0 17.0 0.00 0.00 0.00 30
20260905015403 75 191 7.0 19.0 0.00 0.00 0.00 30
20260905014503 76 189 8.0 19.0 0.00 0.00 0.00 29
20260905013603 77 188 9.0 21.0 0.00 0.00 0.00 28
20260905012703 77 187 9.0 22.0 0.00 0.00 0.00 29
20260905011803 77 189 10.0 20.0 0.00 0.00 0.00 29
20260905010903 78 186 9.0 22.0 0.00 0.00 0.00 28
20260905010003 79 186 10.0 22.0 0.00 0.00 0.00 27
20260905005613 79 188 10.0 20.0 0.00 0.00 0.00 27
20260905004503 79 183 11.0 21.0 0.00 0.00 0.00 27
20260905003603 80 182 9.0 23.0 0.00 0.00 0.00 28
20260905002913 80 187 10.0 20.0 0.00 0.00 0.00 28
20260905001803 80 186 10.0 20.0 0.00 0.00 0.00 28
20260905000903 80 193 9.0 26.0 0.00 0.00 0.00 28
20260905000004 81 194 10.0 22.0 0.00 0.00 0.00 29
20260904235403 81 192 11.0 22.0 0.00 0.00 0.00 28
20260904234503 81 192 10.0 19.0 0.00 0.00 0.00 29
20260904233603 81 186 11.0 23.0 0.00 0.00 0.00 29
20260904232703 82 182 11.0 22.0 0.00 0.00 0.00 28
20260904231803 82 176 9.0 19.0 0.00 0.00 0.00 29
20260904231113 82 190 10.0 25.0 0.00 0.00 0.00 28
20260904230003 83 160 9.0 19.0 0.00 0.00 0.00 27
20260904225403 83 174 9.0 19.0 0.00 0.00 0.00 28
20260904224503 82 149 10.0 22.0 0.00 0.00 0.00 27
20260904223603 83 162 11.0 24.0 0.00 0.00 0.00 26
20260904222703 83 173 13.0 26.0 0.00 0.00 0.00 26
20260904222014 82 187 13.0 26.0 0.00 0.00 0.00 26
20260904220903 83 171 11.0 19.0 0.00 0.00 0.00 28
20260904220003 83 175 11.0 19.0 0.00 0.00 0.00 26
20260904215403 83 165 11.0 19.0 0.00 0.00 0.00 28
20260904214503 83 165 13.0 26.0 0.00 0.00 0.00 26
20260904213603 82 174 14.0 30.0 0.00 0.00 0.00 27
20260904212703 82 176 13.0 27.0 0.00 0.00 0.00 28
20260904211803 82 174 13.0 26.0 0.00 0.00 0.00 28
20260904210903 82 172 15.0 29.0 0.00 0.00 0.00 28
20260904210003 82 181 13.0 28.0 0.00 0.00 0.00 29
20260904205403 82 175 13.0 28.0 0.00 0.00 0.00 29
20260904204713 82 176 14.0 31.0 0.00 0.00 0.00 28
20260904203814 82 184 13.0 27.0 0.00 0.00 0.00 29
20260904202703 82 170 14.0 28.0 0.00 0.00 0.00 28
20260904202013 81 175 15.0 27.0 0.00 0.00 0.00 27
20260904200903 81 143 10.0 19.0 0.00 0.00 0.00 29
20260904200003 81 157 11.0 25.0 0.00 0.00 0.00 30
20260904195403 80 154 12.0 25.0 0.00 0.00 0.00 30
20260904194503 80 160 10.0 19.0 0.00 0.00 0.00 32
20260904193603 80 160 10.0 19.0 0.00 0.00 0.00 31
20260904192703 80 161 11.0 22.0 0.00 0.00 0.00 31
20260904191803 80 164 10.0 23.0 0.00 0.00 0.00 32
20260904190903 79 172 14.0 29.0 0.00 0.00 0.00 32
20260904190003 79 165 13.0 26.0 0.00 0.00 0.00 31
20260904185403 78 169 15.0 26.0 0.00 0.00 0.00 32
20260904184714 78 174 14.0 26.0 0.00 0.00 0.00 31
20260904183603 78 179 14.0 28.0 0.00 0.00 0.00 32
20260904182703 77 182 13.0 29.0 0.00 0.00 0.00 33
20260904181803 76 184 14.0 26.0 0.00 0.00 0.00 35
20260904180903 77 162 13.0 32.0 0.00 0.00 0.00 34
20260904180213 77 172 13.0 29.0 0.00 0.00 0.00 33
20260904175403 76 167 15.0 29.0 0.00 0.00 0.00 34
20260904174503 76 174 15.0 26.0 0.00 0.00 0.00 34
20260904173603 75 175 14.0 26.0 0.00 0.00 0.00 34